Time,TemperatureF,DewpointF,PressureIn,WindDirection,WindDirectionDegrees,WindSpeedMPH,WindSpeedGustMPH,Humidity,HourlyPrecipIn,Conditions,Clouds,dailyrainin,SoftwareType,DateUTC
2013-02-24 00:00:00,30.4,29.7,29.93,East,98,2.3,2.3,97,0.00,CLR,FEW,0.00,WeatherDisplay:10.37,2013-02-24 05:00:00,
2013-02-24 00:01:00,30.4,29.7,29.93,East,98,2.3,2.3,97,0.00,CLR,FEW,0.00,WeatherDisplay:10.37,2013-02-24 05:01:00,
2013-02-24 00:03:00,30.4,29.7,29.93,East,98,2.3,2.3,97,0.00,CLR,FEW,0.00,WeatherDisplay:10.37,2013-02-24 05:03:00,
2013-02-24 00:08:00,30.4,29.7,29.92,East,88,2.3,2.3,97,0.00,CLR,FEW,0.00,WeatherDisplay:10.37,2013-02-24 05:08:00,
2013-02-24 00:13:00,30.5,29.8,29.92,East,88,2.3,2.3,97,0.00,CLR,FEW,0.00,WeatherDisplay:10.37,2013-02-24 05:13:00,
2013-02-24 00:18:00,30.5,29.8,29.92,ESE,116,4.0,4.0,97,0.00,CLR,FEW,0.00,WeatherDisplay:10.37,2013-02-24 05:18:00,
2013-02-24 00:23:00,30.5,29.8,29.92,ESE,116,1.2,1.2,97,0.00,CLR,FEW,0.00,WeatherDisplay:10.37,2013-02-24 05:23:00,
2013-02-24 00:28:00,30.5,29.8,29.91,ESE,116,2.3,2.3,97,0.00,CLR,FEW,0.00,WeatherDisplay:10.37,2013-02-24 05:28:00,
2013-02-24 00:33:00,30.5,29.8,29.91,ENE,72,2.0,2.0,97,0.00,CLR,FEW,0.00,WeatherDisplay:10.37,2013-02-24 05:33:00,
2013-02-24 00:38:00,30.6,29.9,29.91,ENE,72,2.3,2.3,97,0.00,CLR,FEW,0.00,WeatherDisplay:10.37,2013-02-24 05:38:00,
2013-02-24 00:43:00,30.6,29.9,29.91,ENE,72,3.5,3.5,97,0.00,CLR,FEW,0.00,WeatherDisplay:10.37,2013-02-24 05:43:00,
2013-02-24 00:48:00,30.7,30.0,29.91,ENE,72,1.2,1.2,97,0.00,CLR,FEW,0.00,WeatherDisplay:10.37,2013-02-24 05:48:00,
2013-02-24 00:53:00,30.7,30.0,29.91,ENE,72,1.2,1.2,97,0.00,CLR,FEW,0.00,WeatherDisplay:10.37,2013-02-24 05:53:00,
2013-02-24 00:58:00,30.8,30.0,29.91,ENE,69,1.2,1.2,97,0.00,CLR,FEW,0.00,WeatherDisplay:10.37,2013-02-24 05:58:00,
2013-02-24 01:03:00,30.9,30.1,29.90,ENE,69,2.3,2.3,97,0.00,CLR,FEW,0.00,WeatherDisplay:10.37,2013-02-24 06:03:00,
2013-02-24 01:08:00,31.0,30.2,29.90,ENE,58,3.0,3.0,97,0.00,CLR,FEW,0.00,WeatherDisplay:10.37,2013-02-24 06:08:00,
2013-02-24 01:13:00,31.0,30.2,29.90,ENE,58,1.2,1.2,97,0.00,CLR,FEW,0.00,WeatherDisplay:10.37,2013-02-24 06:13:00,
2013-02-24 01:18:00,31.0,30.2,29.90,ENE,74,3.5,3.5,97,0.00,CLR,FEW,0.00,WeatherDisplay:10.37,2013-02-24 06:18:00,
2013-02-24 01:23:00,31.0,30.2,29.90,ENE,74,1.2,1.2,97,0.00,CLR,FEW,0.00,WeatherDisplay:10.37,2013-02-24 06:23:00,
2013-02-24 01:28:00,31.0,30.2,29.90,ENE,74,3.5,3.5,97,0.00,CLR,FEW,0.00,WeatherDisplay:10.37,2013-02-24 06:28:00,
2013-02-24 01:33:00,30.9,30.1,29.89,ENE,74,2.3,2.3,97,0.00,CLR,FEW,0.00,WeatherDisplay:10.37,2013-02-24 06:33:00,
2013-02-24 01:38:00,30.9,30.1,29.89,ENE,74,1.2,1.2,97,0.00,CLR,FEW,0.00,WeatherDisplay:10.37,2013-02-24 06:38:00,
2013-02-24 01:43:00,30.8,30.0,29.89,ESE,116,2.3,2.3,97,0.00,CLR,FEW,0.00,WeatherDisplay:10.37,2013-02-24 06:43:00,
2013-02-24 01:48:00,30.8,30.0,29.88,East,93,2.3,2.3,97,0.00,CLR,FEW,0.00,WeatherDisplay:10.37,2013-02-24 06:48:00,
2013-02-24 01:53:00,30.8,30.0,29.88,East,93,2.3,2.3,97,0.00,CLR,FEW,0.00,WeatherDisplay:10.37,2013-02-24 06:53:00,
2013-02-24 01:58:00,30.8,30.0,29.88,East,93,2.3,2.3,97,0.00,CLR,FEW,0.00,WeatherDisplay:10.37,2013-02-24 06:58:00,
2013-02-24 02:03:00,30.8,30.0,29.88,ENE,75,2.3,2.3,97,0.00,CLR,FEW,0.00,WeatherDisplay:10.37,2013-02-24 07:03:00,
2013-02-24 02:08:00,30.7,30.0,29.88,East,84,2.3,2.3,97,0.00,CLR,FEW,0.00,WeatherDisplay:10.37,2013-02-24 07:08:00,
2013-02-24 02:13:00,30.7,30.0,29.87,East,85,2.3,2.3,97,0.00,CLR,FEW,0.00,WeatherDisplay:10.37,2013-02-24 07:13:00,
2013-02-24 02:18:00,30.7,30.0,29.86,East,96,4.0,4.0,97,0.00,CLR,FEW,0.00,WeatherDisplay:10.37,2013-02-24 07:18:00,
2013-02-24 02:23:00,30.7,30.0,29.86,ENE,66,2.3,2.3,97,0.00,CLR,FEW,0.00,WeatherDisplay:10.37,2013-02-24 07:23:00,
2013-02-24 02:28:00,30.7,30.0,29.86,East,83,2.3,2.3,97,0.00,CLR,FEW,0.00,WeatherDisplay:10.37,2013-02-24 07:28:00,
2013-02-24 02:33:00,30.7,30.0,29.86,ENE,67,2.3,2.3,97,0.00,CLR,FEW,0.00,WeatherDisplay:10.37,2013-02-24 07:33:00,
2013-02-24 02:38:00,30.8,30.0,29.86,ENE,63,3.5,3.5,97,0.00,CLR,FEW,0.00,WeatherDisplay:10.37,2013-02-24 07:38:00,
2013-02-24 02:43:00,30.7,30.0,29.85,ENE,63,3.5,3.5,97,0.00,CLR,FEW,0.00,WeatherDisplay:10.37,2013-02-24 07:43:00,
2013-02-24 02:48:00,30.8,30.0,29.85,ENE,74,2.3,2.3,97,0.00,CLR,FEW,0.00,WeatherDisplay:10.37,2013-02-24 07:48:00,
2013-02-24 02:53:00,30.8,30.0,29.85,ENE,67,3.5,3.5,97,0.00,CLR,FEW,0.00,WeatherDisplay:10.37,2013-02-24 07:53:00,
2013-02-24 02:58:00,30.8,30.0,29.85,ENE,77,5.0,5.0,97,0.00,CLR,FEW,0.00,WeatherDisplay:10.37,2013-02-24 07:58:00,
2013-02-24 03:03:00,30.8,30.0,29.84,East,90,2.3,2.3,97,0.00,CLR,FEW,0.00,WeatherDisplay:10.37,2013-02-24 08:03:00,
2013-02-24 03:08:00,30.8,30.0,29.85,East,90,2.3,2.3,97,0.00,CLR,FEW,0.00,WeatherDisplay:10.37,2013-02-24 08:08:00,
2013-02-24 03:13:00,30.8,30.0,29.85,East,90,1.2,1.2,97,0.00,CLR,FEW,0.00,WeatherDisplay:10.37,2013-02-24 08:13:00,
2013-02-24 03:18:00,30.8,30.0,29.85,East,90,1.2,1.2,97,0.00,CLR,FEW,0.00,WeatherDisplay:10.37,2013-02-24 08:18:00,
2013-02-24 03:23:00,30.8,30.0,29.85,NE,55,2.3,2.3,97,0.00,CLR,FEW,0.00,WeatherDisplay:10.37,2013-02-24 08:23:00,
2013-02-24 03:28:00,30.7,30.0,29.84,NE,55,1.2,1.2,97,0.00,CLR,FEW,0.00,WeatherDisplay:10.37,2013-02-24 08:28:00,
2013-02-24 03:33:00,30.7,30.0,29.84,NE,55,2.3,2.3,97,0.00,CLR,FEW,0.00,WeatherDisplay:10.37,2013-02-24 08:33:00,
2013-02-24 03:38:00,30.7,30.0,29.84,ESE,119,2.3,2.3,97,0.00,CLR,FEW,0.00,WeatherDisplay:10.37,2013-02-24 08:38:00,
2013-02-24 03:43:00,30.7,30.0,29.84,ENE,65,2.3,2.3,97,0.00,CLR,FEW,0.00,WeatherDisplay:10.37,2013-02-24 08:43:00,
2013-02-24 03:48:00,30.7,30.0,29.84,ENE,65,0.0,0.0,97,0.00,CLR,FEW,0.00,WeatherDisplay:10.37,2013-02-24 08:48:00,
2013-02-24 03:53:00,30.7,30.0,29.84,ENE,65,1.2,1.2,97,0.00,CLR,FEW,0.00,WeatherDisplay:10.37,2013-02-24 08:53:00,
2013-02-24 03:58:00,30.7,30.0,29.84,ENE,65,1.2,0.0,97,0.00,CLR,FEW,0.00,WeatherDisplay:10.37,2013-02-24 08:58:00,
2013-02-24 04:03:00,30.7,30.0,29.84,ENE,76,2.3,2.3,97,0.00,CLR,FEW,0.00,WeatherDisplay:10.37,2013-02-24 09:03:00,
2013-02-24 04:08:00,30.7,30.0,29.83,ENE,76,2.3,2.3,97,0.00,CLR,FEW,0.00,WeatherDisplay:10.37,2013-02-24 09:08:00,
2013-02-24 04:13:00,30.7,30.0,29.83,ENE,76,2.0,2.0,97,0.00,CLR,FEW,0.00,WeatherDisplay:10.37,2013-02-24 09:13:00,
2013-02-24 04:18:00,30.7,30.0,29.83,ENE,76,2.3,2.3,97,0.00,CLR,FEW,0.00,WeatherDisplay:10.37,2013-02-24 09:18:00,
2013-02-24 04:23:00,30.7,30.0,29.83,ENE,78,2.3,2.3,97,0.00,CLR,FEW,0.00,WeatherDisplay:10.37,2013-02-24 09:23:00,
2013-02-24 04:28:00,30.7,30.0,29.82,NE,49,2.3,2.3,97,0.00,CLR,FEW,0.00,WeatherDisplay:10.37,2013-02-24 09:28:00,
2013-02-24 04:33:00,30.7,30.0,29.82,NE,48,4.0,4.0,97,0.00,CLR,FEW,0.00,WeatherDisplay:10.37,2013-02-24 09:33:00,
2013-02-24 04:38:00,30.7,30.0,29.82,ENE,77,1.2,1.2,97,0.00,CLR,FEW,0.00,WeatherDisplay:10.37,2013-02-24 09:38:00,
2013-02-24 04:43:00,30.8,30.0,29.83,ENE,60,2.3,2.3,97,0.00,CLR,FEW,0.00,WeatherDisplay:10.37,2013-02-24 09:43:00,
2013-02-24 04:48:00,30.8,30.0,29.83,ENE,70,1.2,1.2,97,0.00,CLR,FEW,0.00,WeatherDisplay:10.37,2013-02-24 09:48:00,
2013-02-24 04:53:00,30.7,30.0,29.83,ENE,70,1.2,1.2,97,0.00,CLR,FEW,0.00,WeatherDisplay:10.37,2013-02-24 09:53:00,
2013-02-24 04:58:00,30.8,30.0,29.83,ENE,70,2.3,2.3,97,0.00,CLR,FEW,0.00,WeatherDisplay:10.37,2013-02-24 09:58:00,
2013-02-24 05:02:00,30.8,30.0,29.83,ENE,63,3.5,3.5,97,0.00,CLR,FEW,0.00,WeatherDisplay:10.37,2013-02-24 10:02:00,
2013-02-24 05:07:00,30.8,30.0,29.83,NNE,29,1.2,1.2,97,0.00,CLR,FEW,0.00,WeatherDisplay:10.37,2013-02-24 10:07:00,
2013-02-24 05:12:00,30.8,30.0,29.83,ESE,109,2.3,2.3,97,0.00,CLR,FEW,0.00,WeatherDisplay:10.37,2013-02-24 10:12:00,
2013-02-24 05:17:00,30.8,30.0,29.83,ENE,70,2.3,2.3,97,0.00,CLR,FEW,0.00,WeatherDisplay:10.37,2013-02-24 10:17:00,
2013-02-24 05:22:00,30.8,30.0,29.83,ENE,70,1.2,1.2,97,0.00,CLR,FEW,0.00,WeatherDisplay:10.37,2013-02-24 10:22:00,
2013-02-24 05:27:00,30.9,30.1,29.83,ENE,70,2.3,2.3,97,0.00,CLR,FEW,0.00,WeatherDisplay:10.37,2013-02-24 10:27:00,
2013-02-24 05:32:00,30.8,30.0,29.83,ENE,57,1.2,1.2,97,0.00,CLR,FEW,0.00,WeatherDisplay:10.37,2013-02-24 10:32:00,
2013-02-24 05:37:00,30.8,30.0,29.83,ENE,64,2.3,2.3,97,0.00,CLR,FEW,0.00,WeatherDisplay:10.37,2013-02-24 10:37:00,
2013-02-24 05:42:00,30.9,30.1,29.83,ENE,72,3.5,3.5,97,0.00,CLR,FEW,0.00,WeatherDisplay:10.37,2013-02-24 10:42:00,
2013-02-24 05:47:00,30.8,30.0,29.82,ENE,72,2.3,2.3,97,0.00,CLR,FEW,0.00,WeatherDisplay:10.37,2013-02-24 10:47:00,
2013-02-24 05:52:00,30.8,30.0,29.83,East,82,2.3,2.3,97,0.00,CLR,FEW,0.00,WeatherDisplay:10.37,2013-02-24 10:52:00,
2013-02-24 05:57:00,30.9,30.1,29.83,NE,41,0.0,0.0,97,0.00,CLR,FEW,0.00,WeatherDisplay:10.37,2013-02-24 10:57:00,
2013-02-24 06:02:00,30.9,30.1,29.82,NE,40,1.2,1.2,97,0.00,CLR,FEW,0.00,WeatherDisplay:10.37,2013-02-24 11:02:00,
2013-02-24 06:07:00,30.9,30.1,29.83,NE,40,1.0,1.0,97,0.00,CLR,FEW,0.00,WeatherDisplay:10.37,2013-02-24 11:07:00,
2013-02-24 06:12:00,30.9,30.1,29.84,NE,40,0.0,0.0,97,0.00,CLR,FEW,0.00,WeatherDisplay:10.37,2013-02-24 11:12:00,
2013-02-24 06:17:00,31.0,30.2,29.84,NNW,336,1.2,0.0,97,0.00,CLR,FEW,0.00,WeatherDisplay:10.37,2013-02-24 11:17:00,
2013-02-24 06:22:00,31.0,30.2,29.84,NNW,336,1.2,0.0,97,0.00,CLR,FEW,0.00,WeatherDisplay:10.37,2013-02-24 11:22:00,
2013-02-24 06:27:00,31.0,30.2,29.84,NNE,18,3.5,3.5,97,0.00,CLR,FEW,0.00,WeatherDisplay:10.37,2013-02-24 11:27:00,
2013-02-24 06:32:00,31.0,30.2,29.84,NNE,13,1.2,0.0,97,0.00,CLR,FEW,0.00,WeatherDisplay:10.37,2013-02-24 11:32:00,
2013-02-24 06:37:00,31.0,30.2,29.83,NNE,13,2.3,2.3,97,0.00,CLR,FEW,0.00,WeatherDisplay:10.37,2013-02-24 11:37:00,
2013-02-24 06:42:00,31.0,30.2,29.83,NE,38,1.2,1.2,97,0.00,CLR,FEW,0.00,WeatherDisplay:10.37,2013-02-24 11:42:00,
2013-02-24 06:47:00,31.0,30.2,29.82,ESE,115,2.0,2.0,97,0.00,CLR,FEW,0.00,WeatherDisplay:10.37,2013-02-24 11:47:00,
2013-02-24 06:52:00,30.9,30.1,29.82,ESE,115,1.2,1.2,97,0.00,CLR,FEW,0.00,WeatherDisplay:10.37,2013-02-24 11:52:00,
2013-02-24 06:57:00,30.9,30.1,29.81,ESE,115,2.3,2.3,97,0.00,CLR,FEW,0.00,WeatherDisplay:10.37,2013-02-24 11:57:00,
2013-02-24 07:02:00,30.9,30.1,29.81,ESE,115,2.3,2.3,97,0.00,CLR,FEW,0.00,WeatherDisplay:10.37,2013-02-24 12:02:00,
2013-02-24 07:07:00,30.9,30.1,29.81,ENE,65,2.0,2.0,97,0.00,CLR,FEW,0.00,WeatherDisplay:10.37,2013-02-24 12:07:00,
2013-02-24 07:12:00,30.9,30.1,29.81,East,98,2.3,2.3,97,0.00,CLR,FEW,0.00,WeatherDisplay:10.37,2013-02-24 12:12:00,
2013-02-24 07:17:00,30.9,30.1,29.81,ENE,67,3.5,3.5,97,0.00,CLR,FEW,0.00,WeatherDisplay:10.37,2013-02-24 12:17:00,
2013-02-24 07:22:00,31.0,30.2,29.81,NE,48,3.5,3.5,97,0.00,CLR,FEW,0.00,WeatherDisplay:10.37,2013-02-24 12:22:00,
2013-02-24 07:27:00,31.0,30.2,29.80,NE,54,3.5,3.5,97,0.00,CLR,FEW,0.00,WeatherDisplay:10.37,2013-02-24 12:27:00,
2013-02-24 07:32:00,31.0,30.2,29.81,ENE,74,2.3,2.3,97,0.00,CLR,FEW,0.00,WeatherDisplay:10.37,2013-02-24 12:32:00,
2013-02-24 07:38:00,31.0,30.2,29.81,ENE,65,2.3,2.3,97,0.00,CLR,FEW,0.00,WeatherDisplay:10.37,2013-02-24 12:38:00,
2013-02-24 07:43:00,31.0,30.2,29.81,NE,49,3.5,3.5,97,0.00,CLR,FEW,0.00,WeatherDisplay:10.37,2013-02-24 12:43:00,
2013-02-24 07:48:00,31.0,30.2,29.81,ENE,59,3.5,3.5,97,0.00,CLR,FEW,0.00,WeatherDisplay:10.37,2013-02-24 12:48:00,
2013-02-24 07:53:00,31.0,30.2,29.81,NNE,28,1.2,1.2,97,0.00,CLR,FEW,0.00,WeatherDisplay:10.37,2013-02-24 12:53:00,
2013-02-24 07:58:00,31.0,30.2,29.80,ENE,78,3.5,3.5,97,0.00,CLR,FEW,0.00,WeatherDisplay:10.37,2013-02-24 12:58:00,
2013-02-24 08:03:00,31.0,30.2,29.80,ENE,78,2.3,2.3,97,0.00,CLR,FEW,0.00,WeatherDisplay:10.37,2013-02-24 13:03:00,
2013-02-24 08:08:00,31.0,30.2,29.80,NNE,14,3.5,3.5,97,0.00,CLR,FEW,0.00,WeatherDisplay:10.37,2013-02-24 13:08:00,
2013-02-24 08:13:00,31.0,30.2,29.80,NE,42,3.5,3.5,97,0.00,CLR,FEW,0.00,WeatherDisplay:10.37,2013-02-24 13:13:00,
2013-02-24 08:18:00,31.0,30.2,29.80,ENE,76,2.0,2.0,97,0.00,CLR,FEW,0.00,WeatherDisplay:10.37,2013-02-24 13:18:00,
2013-02-24 08:23:00,31.0,30.2,29.81,ENE,71,1.2,1.2,97,0.00,CLR,FEW,0.00,WeatherDisplay:10.37,2013-02-24 13:23:00,
2013-02-24 08:28:00,31.0,30.2,29.80,NE,52,3.5,3.5,97,0.00,CLR,FEW,0.00,WeatherDisplay:10.37,2013-02-24 13:28:00,
2013-02-24 08:33:00,31.0,30.2,29.80,NE,38,2.3,2.3,97,0.00,CLR,FEW,0.00,WeatherDisplay:10.37,2013-02-24 13:33:00,
2013-02-24 08:38:00,31.1,30.3,29.80,ENE,59,3.5,3.5,97,0.00,CLR,FEW,0.00,WeatherDisplay:10.37,2013-02-24 13:38:00,
2013-02-24 08:43:00,31.1,30.3,29.80,North,355,0.0,0.0,97,0.00,CLR,FEW,0.00,WeatherDisplay:10.37,2013-02-24 13:43:00,
2013-02-24 08:48:00,31.2,30.2,29.80,NE,46,1.2,1.2,96,0.00,CLR,FEW,0.00,WeatherDisplay:10.37,2013-02-24 13:48:00,
2013-02-24 08:53:00,31.4,30.4,29.80,NNE,15,3.5,3.5,96,0.00,CLR,FEW,0.00,WeatherDisplay:10.37,2013-02-24 13:53:00,
2013-02-24 08:58:00,31.3,30.3,29.79,NNE,13,1.2,0.0,96,0.00,CLR,FEW,0.00,WeatherDisplay:10.37,2013-02-24 13:58:00,
2013-02-24 09:03:00,31.4,30.4,29.80,NNE,16,2.3,2.3,96,0.00,CLR,FEW,0.00,WeatherDisplay:10.37,2013-02-24 14:03:00,
2013-02-24 09:08:00,31.4,30.4,29.79,NNE,18,1.2,1.2,96,0.00,CLR,FEW,0.00,WeatherDisplay:10.37,2013-02-24 14:08:00,
2013-02-24 09:13:00,31.4,30.4,29.79,NE,39,2.3,2.3,96,0.00,CLR,FEW,0.00,WeatherDisplay:10.37,2013-02-24 14:13:00,
2013-02-24 09:18:00,31.4,30.4,29.78,ENE,76,2.3,2.3,96,0.00,CLR,FEW,0.00,WeatherDisplay:10.37,2013-02-24 14:18:00,
2013-02-24 09:23:00,31.4,30.4,29.78,East,79,3.5,3.5,96,0.00,CLR,FEW,0.00,WeatherDisplay:10.37,2013-02-24 14:23:00,
2013-02-24 09:28:00,31.5,30.5,29.78,East,79,1.2,1.3,96,0.00,CLR,FEW,0.00,WeatherDisplay:10.37,2013-02-24 14:28:00,
2013-02-24 09:33:00,31.5,30.5,29.78,NNW,336,3.5,3.5,96,0.00,CLR,FEW,0.00,WeatherDisplay:10.37,2013-02-24 14:33:00,
2013-02-24 09:38:00,31.6,30.6,29.78,NNW,336,1.2,1.2,96,0.00,CLR,FEW,0.00,WeatherDisplay:10.37,2013-02-24 14:38:00,
2013-02-24 09:43:00,31.7,30.7,29.78,NE,53,2.3,2.3,96,0.00,CLR,FEW,0.00,WeatherDisplay:10.37,2013-02-24 14:43:00,
2013-02-24 09:48:00,31.9,30.9,29.78,ENE,78,3.5,3.5,96,0.00,CLR,FEW,0.00,WeatherDisplay:10.37,2013-02-24 14:48:00,
2013-02-24 09:53:00,31.8,30.5,29.78,NE,43,3.5,3.5,95,0.00,CLR,FEW,0.00,WeatherDisplay:10.37,2013-02-24 14:53:00,
2013-02-24 09:58:00,31.9,30.6,29.78,NNE,24,2.3,2.3,95,0.00,CLR,FEW,0.00,WeatherDisplay:10.37,2013-02-24 14:58:00,
2013-02-24 10:03:00,32.0,30.7,29.78,NE,41,2.3,2.3,95,0.00,CLR,FEW,0.00,WeatherDisplay:10.37,2013-02-24 15:03:00,
2013-02-24 10:08:00,32.1,30.8,29.78,NE,55,3.5,3.5,95,0.00,CLR,FEW,0.00,WeatherDisplay:10.37,2013-02-24 15:08:00,
2013-02-24 10:13:00,32.1,30.8,29.78,NE,43,3.5,3.5,95,0.00,CLR,FEW,0.00,WeatherDisplay:10.37,2013-02-24 15:13:00,
2013-02-24 10:18:00,32.2,30.9,29.78,ESE,112,2.3,2.3,95,0.00,CLR,FEW,0.00,WeatherDisplay:10.37,2013-02-24 15:18:00,
2013-02-24 10:23:00,32.2,30.7,29.79,NNW,335,4.6,4.6,94,0.00,CLR,FEW,0.00,WeatherDisplay:10.37,2013-02-24 15:23:00,
2013-02-24 10:28:00,32.2,30.7,29.78,ENE,57,5.8,5.8,94,0.00,CLR,FEW,0.00,WeatherDisplay:10.37,2013-02-24 15:28:00,
2013-02-24 10:33:00,32.3,30.8,29.78,NE,50,3.5,3.5,94,0.00,CLR,FEW,0.00,WeatherDisplay:10.37,2013-02-24 15:33:00,
2013-02-24 10:38:00,32.3,30.8,29.78,North,5,4.6,4.6,94,0.00,CLR,FEW,0.00,WeatherDisplay:10.37,2013-02-24 15:38:00,
2013-02-24 10:43:00,32.5,31.0,29.78,East,86,3.5,3.5,94,0.00,CLR,FEW,0.00,WeatherDisplay:10.37,2013-02-24 15:43:00,
2013-02-24 10:48:00,32.5,31.0,29.78,NNW,337,4.6,4.6,94,0.00,CLR,FEW,0.00,WeatherDisplay:10.37,2013-02-24 15:48:00,
2013-02-24 10:53:00,32.5,31.0,29.78,ENE,74,3.5,3.5,94,0.00,CLR,FEW,0.00,WeatherDisplay:10.37,2013-02-24 15:53:00,
2013-02-24 10:58:00,32.5,30.7,29.78,East,80,3.5,3.5,93,0.00,CLR,FEW,0.00,WeatherDisplay:10.37,2013-02-24 15:58:00,
2013-02-24 11:03:00,32.6,30.8,29.78,ENE,63,2.0,2.0,93,0.01,RA,FEW,0.01,WeatherDisplay:10.37,2013-02-24 16:03:00,
2013-02-24 11:08:00,32.6,31.1,29.78,ENE,57,2.3,2.3,94,0.01,RA,FEW,0.01,WeatherDisplay:10.37,2013-02-24 16:08:00,
2013-02-24 11:13:00,32.6,30.8,29.78,NNE,22,2.3,2.3,93,0.01,,FEW,0.01,WeatherDisplay:10.37,2013-02-24 16:13:00,
2013-02-24 11:18:00,32.4,30.6,29.78,NE,56,2.3,2.3,93,0.01,CLR,FEW,0.01,WeatherDisplay:10.37,2013-02-24 16:18:00,
2013-02-24 11:23:00,32.5,30.7,29.78,ENE,78,2.3,2.3,93,0.01,CLR,FEW,0.01,WeatherDisplay:10.37,2013-02-24 16:23:00,
2013-02-24 11:28:00,32.4,30.6,29.77,ENE,65,3.5,3.5,93,0.01,CLR,FEW,0.01,WeatherDisplay:10.37,2013-02-24 16:28:00,
2013-02-24 11:33:00,32.3,30.8,29.78,NNW,333,2.3,2.3,94,0.02,RA,FEW,0.02,WeatherDisplay:10.37,2013-02-24 16:33:00,
2013-02-24 11:38:00,32.2,30.4,29.77,NW,317,2.3,2.3,93,0.02,RA,FEW,0.02,WeatherDisplay:10.37,2013-02-24 16:38:00,
2013-02-24 11:43:00,32.0,30.5,29.77,NE,45,2.3,2.3,94,0.02,,FEW,0.02,WeatherDisplay:10.37,2013-02-24 16:43:00,
2013-02-24 11:48:00,31.9,30.4,29.77,NW,326,2.3,2.3,94,0.02,CLR,FEW,0.02,WeatherDisplay:10.37,2013-02-24 16:48:00,
2013-02-24 11:53:00,31.7,30.2,29.76,NE,40,3.5,3.5,94,0.02,CLR,FEW,0.02,WeatherDisplay:10.37,2013-02-24 16:53:00,
2013-02-24 11:58:00,31.7,30.2,29.76,ESE,115,3.5,3.5,94,0.02,CLR,FEW,0.02,WeatherDisplay:10.37,2013-02-24 16:58:00,
2013-02-24 12:03:00,31.6,30.1,29.76,North,355,4.6,4.6,94,0.02,RA,FEW,0.03,WeatherDisplay:10.37,2013-02-24 17:03:00,
2013-02-24 12:08:00,31.5,30.2,29.76,ENE,60,3.5,3.5,95,0.02,RA,FEW,0.03,WeatherDisplay:10.37,2013-02-24 17:08:00,
2013-02-24 12:13:00,31.5,30.2,29.76,ESE,111,2.3,2.3,95,0.02,CLR,FEW,0.03,WeatherDisplay:10.37,2013-02-24 17:13:00,
2013-02-24 12:18:00,31.5,30.2,29.76,NE,45,2.3,2.3,95,0.02,CLR,FEW,0.03,WeatherDisplay:10.37,2013-02-24 17:18:00,
2013-02-24 12:23:00,31.6,30.3,29.76,NW,316,2.3,2.3,95,0.02,CLR,FEW,0.03,WeatherDisplay:10.37,2013-02-24 17:23:00,
2013-02-24 12:28:00,31.6,30.3,29.76,NNW,339,2.3,2.3,95,0.02,CLR,FEW,0.03,WeatherDisplay:10.37,2013-02-24 17:28:00,
2013-02-24 12:33:00,31.7,30.4,29.76,NNW,331,1.2,0.0,95,0.01,CLR,FEW,0.03,WeatherDisplay:10.37,2013-02-24 17:33:00,
2013-02-24 12:38:00,31.7,30.4,29.76,NW,314,1.2,1.2,95,0.01,CLR,FEW,0.03,WeatherDisplay:10.37,2013-02-24 17:38:00,
2013-02-24 12:43:00,31.8,30.5,29.76,NW,324,3.5,3.5,95,0.01,CLR,FEW,0.03,WeatherDisplay:10.37,2013-02-24 17:43:00,
2013-02-24 12:48:00,31.9,30.6,29.76,WNW,294,3.5,3.5,95,0.02,RA,FEW,0.04,WeatherDisplay:10.37,2013-02-24 17:48:00,
2013-02-24 12:53:00,32.0,30.7,29.76,NE,34,3.5,3.5,95,0.02,RA,FEW,0.04,WeatherDisplay:10.37,2013-02-24 17:53:00,
2013-02-24 12:58:00,32.3,31.0,29.76,NE,43,2.3,2.3,95,0.02,CLR,FEW,0.04,WeatherDisplay:10.37,2013-02-24 17:58:00,
2013-02-24 13:03:00,32.6,31.3,29.76,North,9,2.0,2.0,95,0.01,CLR,FEW,0.04,WeatherDisplay:10.37,2013-02-24 18:03:00,
2013-02-24 13:08:00,32.7,31.4,29.76,NE,50,3.5,3.5,95,0.02,RA,FEW,0.05,WeatherDisplay:10.37,2013-02-24 18:08:00,
2013-02-24 13:13:00,32.8,31.3,29.75,ENE,63,2.3,2.3,94,0.02,RA,FEW,0.05,WeatherDisplay:10.37,2013-02-24 18:13:00,
2013-02-24 13:18:00,32.8,31.3,29.75,NNE,21,2.3,2.3,94,0.02,,FEW,0.05,WeatherDisplay:10.37,2013-02-24 18:18:00,
2013-02-24 13:23:00,32.9,31.4,29.75,ENE,78,3.5,3.5,94,0.03,RA,FEW,0.06,WeatherDisplay:10.37,2013-02-24 18:23:00,
2013-02-24 13:28:00,33.1,31.6,29.75,NNW,331,2.3,2.3,94,0.03,RA,FEW,0.06,WeatherDisplay:10.37,2013-02-24 18:28:00,
2013-02-24 13:33:00,33.0,31.5,29.75,NNE,33,3.0,3.0,94,0.03,,FEW,0.06,WeatherDisplay:10.37,2013-02-24 18:33:00,
2013-02-24 13:38:00,33.1,31.6,29.75,North,5,3.0,3.0,94,0.04,RA,FEW,0.07,WeatherDisplay:10.37,2013-02-24 18:38:00,
2013-02-24 13:43:00,33.0,31.2,29.75,NW,325,3.5,3.5,93,0.04,RA,FEW,0.07,WeatherDisplay:10.37,2013-02-24 18:43:00,
2013-02-24 13:48:00,32.8,31.3,29.75,NNW,331,4.0,4.0,94,0.03,,FEW,0.07,WeatherDisplay:10.37,2013-02-24 18:48:00,
2013-02-24 13:53:00,32.7,31.2,29.75,North,9,1.2,1.2,94,0.04,RA,FEW,0.08,WeatherDisplay:10.37,2013-02-24 18:53:00,
2013-02-24 13:58:00,32.6,31.1,29.75,NE,42,5.8,5.8,94,0.04,RA,FEW,0.08,WeatherDisplay:10.37,2013-02-24 18:58:00,
2013-02-24 14:03:00,32.5,31.0,29.75,NW,319,2.3,2.3,94,0.04,,FEW,0.08,WeatherDisplay:10.37,2013-02-24 19:03:00,
2013-02-24 14:08:00,32.5,31.0,29.75,NW,323,3.5,3.5,94,0.03,CLR,FEW,0.08,WeatherDisplay:10.37,2013-02-24 19:08:00,
2013-02-24 14:13:00,32.5,31.0,29.75,WNW,303,8.1,8.1,94,0.04,RA,FEW,0.09,WeatherDisplay:10.37,2013-02-24 19:13:00,
2013-02-24 14:18:00,32.6,31.1,29.75,North,355,1.2,1.2,94,0.04,RA,FEW,0.09,WeatherDisplay:10.37,2013-02-24 19:18:00,
2013-02-24 14:23:00,32.8,31.3,29.75,North,360,1.2,1.2,94,0.03,,FEW,0.09,WeatherDisplay:10.37,2013-02-24 19:23:00,
2013-02-24 14:28:00,32.9,31.4,29.76,NW,323,2.3,2.3,94,0.03,CLR,FEW,0.09,WeatherDisplay:10.37,2013-02-24 19:28:00,
2013-02-24 14:33:00,33.0,31.5,29.75,NW,311,3.5,3.5,94,0.03,CLR,FEW,0.09,WeatherDisplay:10.37,2013-02-24 19:33:00,
2013-02-24 14:38:00,33.0,31.2,29.75,NW,313,2.3,2.3,93,0.02,CLR,FEW,0.09,WeatherDisplay:10.37,2013-02-24 19:38:00,
2013-02-24 14:43:00,33.2,31.7,29.75,NE,50,5.8,5.8,94,0.02,CLR,FEW,0.09,WeatherDisplay:10.37,2013-02-24 19:43:00,
2013-02-24 14:48:00,33.3,31.5,29.75,NNE,22,1.2,1.2,93,0.02,CLR,FEW,0.09,WeatherDisplay:10.37,2013-02-24 19:48:00,
2013-02-24 14:53:00,33.4,31.6,29.76,NNW,338,2.3,2.3,93,0.01,CLR,FEW,0.09,WeatherDisplay:10.37,2013-02-24 19:53:00,
2013-02-24 14:58:00,33.2,31.4,29.76,NNW,334,3.5,3.5,93,0.01,CLR,FEW,0.09,WeatherDisplay:10.37,2013-02-24 19:58:00,
2013-02-24 15:03:00,33.2,31.4,29.76,North,11,4.0,4.0,93,0.01,CLR,FEW,0.09,WeatherDisplay:10.37,2013-02-24 20:03:00,
2013-02-24 15:08:00,33.1,31.0,29.76,NW,317,4.6,4.6,92,0.01,CLR,FEW,0.09,WeatherDisplay:10.37,2013-02-24 20:08:00,
2013-02-24 15:13:00,33.0,30.9,29.76,NNW,344,3.5,0.0,92,0.00,CLR,FEW,0.09,WeatherDisplay:10.37,2013-02-24 20:13:00,
2013-02-24 15:18:00,32.9,30.8,29.76,NNE,32,5.8,5.8,92,0.00,CLR,FEW,0.09,WeatherDisplay:10.37,2013-02-24 20:18:00,
2013-02-24 15:23:00,32.8,31.0,29.76,NNE,28,3.5,3.5,93,0.00,CLR,FEW,0.09,WeatherDisplay:10.37,2013-02-24 20:23:00,
2013-02-24 15:28:00,32.8,31.0,29.76,NE,46,2.3,2.3,93,0.00,CLR,FEW,0.09,WeatherDisplay:10.37,2013-02-24 20:28:00,
2013-02-24 15:33:00,32.7,30.9,29.76,NNW,328,3.5,3.5,93,0.00,CLR,FEW,0.09,WeatherDisplay:10.37,2013-02-24 20:33:00,
2013-02-24 15:38:00,32.7,30.9,29.76,NE,43,1.2,1.2,93,0.00,CLR,FEW,0.09,WeatherDisplay:10.37,2013-02-24 20:38:00,
2013-02-24 15:43:00,32.6,30.8,29.76,North,5,3.5,3.5,93,0.01,RA,FEW,0.10,WeatherDisplay:10.37,2013-02-24 20:43:00,
2013-02-24 15:48:00,32.6,30.8,29.76,NNW,340,3.0,3.0,93,0.01,RA,FEW,0.10,WeatherDisplay:10.37,2013-02-24 20:48:00,
2013-02-24 15:53:00,32.5,30.7,29.76,NE,44,3.5,3.5,93,0.01,CLR,FEW,0.10,WeatherDisplay:10.37,2013-02-24 20:53:00,
2013-02-24 15:58:00,32.4,30.6,29.76,NE,52,4.0,4.0,93,0.01,CLR,FEW,0.10,WeatherDisplay:10.37,2013-02-24 20:58:00,
2013-02-24 16:03:00,32.4,30.6,29.76,ENE,67,3.5,3.5,93,0.01,CLR,FEW,0.10,WeatherDisplay:10.37,2013-02-24 21:03:00,
2013-02-24 16:08:00,32.3,30.5,29.77,ENE,61,1.2,0.0,93,0.02,RA,FEW,0.11,WeatherDisplay:10.37,2013-02-24 21:08:00,
2013-02-24 16:13:00,32.3,30.5,29.77,ENE,61,0.0,0.0,93,0.02,RA,FEW,0.11,WeatherDisplay:10.37,2013-02-24 21:13:00,
2013-02-24 16:18:00,32.3,30.8,29.77,ENE,61,2.3,0.0,94,0.02,CLR,FEW,0.11,WeatherDisplay:10.37,2013-02-24 21:18:00,
2013-02-24 16:23:00,32.2,30.7,29.78,NW,321,1.2,0.0,94,0.02,CLR,FEW,0.11,WeatherDisplay:10.37,2013-02-24 21:23:00,
2013-02-24 16:28:00,32.2,30.7,29.78,NW,312,2.3,2.3,94,0.02,CLR,FEW,0.11,WeatherDisplay:10.37,2013-02-24 21:28:00,
2013-02-24 16:33:00,32.1,30.6,29.78,North,350,2.3,2.3,94,0.02,CLR,FEW,0.11,WeatherDisplay:10.37,2013-02-24 21:33:00,
2013-02-24 16:38:00,32.1,30.6,29.78,ESE,106,3.5,3.5,94,0.02,CLR,FEW,0.11,WeatherDisplay:10.37,2013-02-24 21:38:00,
2013-02-24 16:43:00,32.0,30.2,29.78,NE,43,2.3,2.3,93,0.01,CLR,FEW,0.11,WeatherDisplay:10.37,2013-02-24 21:43:00,
2013-02-24 16:48:00,31.9,30.4,29.78,NNW,344,1.2,1.2,94,0.01,CLR,FEW,0.11,WeatherDisplay:10.37,2013-02-24 21:48:00,
2013-02-24 16:53:00,31.9,30.4,29.78,NNW,348,1.2,1.2,94,0.01,CLR,FEW,0.11,WeatherDisplay:10.37,2013-02-24 21:53:00,
2013-02-24 16:58:00,31.9,30.4,29.79,NNW,348,1.2,0.0,94,0.01,CLR,FEW,0.11,WeatherDisplay:10.37,2013-02-24 21:58:00,
2013-02-24 17:03:00,31.8,30.3,29.79,NNW,348,1.2,0.0,94,0.01,CLR,FEW,0.11,WeatherDisplay:10.37,2013-02-24 22:03:00,
2013-02-24 17:08:00,31.8,30.3,29.79,NNW,348,0.0,0.0,94,0.00,CLR,FEW,0.11,WeatherDisplay:10.37,2013-02-24 22:08:00,
2013-02-24 17:13:00,31.7,30.2,29.79,NNW,348,0.0,0.0,94,0.00,CLR,FEW,0.11,WeatherDisplay:10.37,2013-02-24 22:13:00,
2013-02-24 17:18:00,31.7,30.2,29.79,NNW,348,1.2,0.0,94,0.00,CLR,FEW,0.11,WeatherDisplay:10.37,2013-02-24 22:18:00,
2013-02-24 17:23:00,31.7,30.2,29.79,NNW,348,0.0,0.1,94,0.00,CLR,FEW,0.11,WeatherDisplay:10.37,2013-02-24 22:23:00,
2013-02-24 17:28:00,31.6,30.1,29.79,North,349,2.3,2.3,94,0.00,CLR,FEW,0.11,WeatherDisplay:10.37,2013-02-24 22:28:00,
2013-02-24 17:33:00,31.5,30.0,29.79,North,349,2.3,2.3,94,0.00,CLR,FEW,0.11,WeatherDisplay:10.37,2013-02-24 22:33:00,
2013-02-24 17:38:00,31.5,30.2,29.80,North,349,1.2,0.0,95,0.01,RA,FEW,0.12,WeatherDisplay:10.37,2013-02-24 22:38:00,
2013-02-24 17:43:00,31.4,30.1,29.80,North,349,1.2,1.2,95,0.01,RA,FEW,0.12,WeatherDisplay:10.37,2013-02-24 22:43:00,
2013-02-24 17:48:00,31.3,30.0,29.80,North,349,2.3,2.3,95,0.01,,FEW,0.12,WeatherDisplay:10.37,2013-02-24 22:48:00,
2013-02-24 17:53:00,31.2,29.9,29.80,North,349,1.2,1.2,95,0.01,CLR,FEW,0.12,WeatherDisplay:10.37,2013-02-24 22:53:00,
2013-02-24 17:58:00,31.1,29.8,29.80,North,349,2.3,2.3,95,0.01,CLR,FEW,0.12,WeatherDisplay:10.37,2013-02-24 22:58:00,
2013-02-24 18:03:00,31.1,29.8,29.81,North,349,0.0,0.0,95,0.01,CLR,FEW,0.12,WeatherDisplay:10.37,2013-02-24 23:03:00,
2013-02-24 18:08:00,31.1,29.8,29.81,North,349,0.0,0.4,95,0.01,CLR,FEW,0.12,WeatherDisplay:10.37,2013-02-24 23:08:00,
2013-02-24 18:13:00,31.0,29.7,29.81,North,349,0.0,0.0,95,0.01,CLR,FEW,0.12,WeatherDisplay:10.37,2013-02-24 23:13:00,
2013-02-24 18:18:00,31.0,29.7,29.81,North,349,0.0,0.0,95,0.01,CLR,FEW,0.12,WeatherDisplay:10.37,2013-02-24 23:18:00,
2013-02-24 18:23:00,31.0,29.7,29.81,North,349,1.2,1.2,95,0.01,CLR,FEW,0.12,WeatherDisplay:10.37,2013-02-24 23:23:00,
2013-02-24 18:28:00,31.1,29.8,29.82,North,349,0.0,0.0,95,0.01,CLR,FEW,0.12,WeatherDisplay:10.37,2013-02-24 23:28:00,
2013-02-24 18:33:00,31.1,29.8,29.82,North,349,1.2,0.0,95,0.01,CLR,FEW,0.12,WeatherDisplay:10.37,2013-02-24 23:33:00,
2013-02-24 18:38:00,31.1,29.8,29.82,North,349,1.2,1.2,95,0.00,CLR,FEW,0.12,WeatherDisplay:10.37,2013-02-24 23:38:00,
2013-02-24 18:43:00,30.9,29.6,29.83,North,349,0.0,0.0,95,0.00,CLR,FEW,0.12,WeatherDisplay:10.37,2013-02-24 23:43:00,
2013-02-24 18:48:00,30.9,29.9,29.83,North,349,0.0,0.0,96,0.00,CLR,FEW,0.12,WeatherDisplay:10.37,2013-02-24 23:48:00,
2013-02-24 18:53:00,30.9,29.9,29.83,North,349,0.0,0.0,96,0.00,CLR,FEW,0.12,WeatherDisplay:10.37,2013-02-24 23:53:00,
2013-02-24 18:58:00,30.9,29.9,29.83,North,349,0.0,0.0,96,0.00,CLR,FEW,0.12,WeatherDisplay:10.37,2013-02-24 23:58:00,
2013-02-24 19:03:00,30.8,29.8,29.83,North,349,0.0,0.0,96,0.00,CLR,FEW,0.12,WeatherDisplay:10.37,2013-02-25 00:03:00,
2013-02-24 19:08:00,30.8,29.8,29.83,North,349,0.0,0.0,96,0.00,CLR,FEW,0.12,WeatherDisplay:10.37,2013-02-25 00:08:00,
2013-02-24 19:13:00,30.8,29.8,29.83,North,349,0.0,0.0,96,0.00,CLR,FEW,0.12,WeatherDisplay:10.37,2013-02-25 00:13:00,
2013-02-24 19:18:00,30.8,29.8,29.84,North,349,0.0,0.0,96,0.00,CLR,FEW,0.12,WeatherDisplay:10.37,2013-02-25 00:18:00,
2013-02-24 19:23:00,30.8,29.8,29.84,North,349,0.0,0.0,96,0.00,CLR,FEW,0.12,WeatherDisplay:10.37,2013-02-25 00:23:00,
2013-02-24 19:28:00,30.8,29.8,29.84,North,349,0.0,0.0,96,0.00,CLR,FEW,0.12,WeatherDisplay:10.37,2013-02-25 00:28:00,
2013-02-24 19:33:00,30.7,29.7,29.84,North,349,0.0,0.0,96,0.00,CLR,FEW,0.12,WeatherDisplay:10.37,2013-02-25 00:33:00,
2013-02-24 19:38:00,30.7,29.4,29.84,North,349,0.0,0.0,95,0.00,CLR,FEW,0.12,WeatherDisplay:10.37,2013-02-25 00:38:00,
2013-02-24 19:43:00,30.7,29.7,29.85,North,349,0.0,0.0,96,0.00,CLR,FEW,0.12,WeatherDisplay:10.37,2013-02-25 00:43:00,
2013-02-24 19:48:00,30.7,29.7,29.85,North,349,0.0,0.0,96,0.00,CLR,FEW,0.12,WeatherDisplay:10.37,2013-02-25 00:48:00,
2013-02-24 19:53:00,30.7,29.7,29.85,North,349,0.0,0.0,96,0.00,CLR,FEW,0.12,WeatherDisplay:10.37,2013-02-25 00:53:00,
2013-02-24 19:58:00,30.7,29.7,29.85,North,349,0.0,0.0,96,0.00,CLR,FEW,0.12,WeatherDisplay:10.37,2013-02-25 00:58:00,
2013-02-24 20:03:00,30.7,29.7,29.85,North,349,0.0,0.0,96,0.00,CLR,FEW,0.12,WeatherDisplay:10.37,2013-02-25 01:03:00,
2013-02-24 20:08:00,30.7,29.7,29.86,North,349,0.0,0.0,96,0.00,CLR,FEW,0.12,WeatherDisplay:10.37,2013-02-25 01:08:00,
2013-02-24 20:13:00,30.7,29.7,29.86,North,349,0.0,0.0,96,0.00,CLR,FEW,0.12,WeatherDisplay:10.37,2013-02-25 01:13:00,
2013-02-24 20:18:00,30.7,29.7,29.86,North,349,0.0,0.0,96,0.00,CLR,FEW,0.12,WeatherDisplay:10.37,2013-02-25 01:18:00,
2013-02-24 20:23:00,30.7,29.7,29.86,North,349,0.0,0.0,96,0.00,CLR,FEW,0.12,WeatherDisplay:10.37,2013-02-25 01:23:00,
2013-02-24 20:28:00,30.7,29.7,29.87,North,349,0.0,0.0,96,0.00,CLR,FEW,0.12,WeatherDisplay:10.37,2013-02-25 01:28:00,
2013-02-24 20:33:00,30.7,29.7,29.87,North,349,0.0,0.0,96,0.00,CLR,FEW,0.12,WeatherDisplay:10.37,2013-02-25 01:33:00,
2013-02-24 20:38:00,30.7,29.7,29.87,North,349,0.0,0.0,96,0.00,CLR,FEW,0.12,WeatherDisplay:10.37,2013-02-25 01:38:00,
2013-02-24 20:43:00,30.7,29.7,29.87,North,349,0.0,0.0,96,0.00,CLR,FEW,0.12,WeatherDisplay:10.37,2013-02-25 01:43:00,
2013-02-24 20:48:00,30.6,29.6,29.87,North,349,0.0,0.0,96,0.00,CLR,FEW,0.12,WeatherDisplay:10.37,2013-02-25 01:48:00,
2013-02-24 20:53:00,30.6,29.6,29.87,North,349,0.0,0.0,96,0.00,CLR,FEW,0.12,WeatherDisplay:10.37,2013-02-25 01:53:00,
2013-02-24 20:58:00,30.6,29.6,29.87,North,349,0.0,0.0,96,0.00,CLR,FEW,0.12,WeatherDisplay:10.37,2013-02-25 01:58:00,
2013-02-24 21:03:00,30.6,29.6,29.87,North,349,0.0,0.0,96,0.00,CLR,FEW,0.12,WeatherDisplay:10.37,2013-02-25 02:03:00,
2013-02-24 21:08:00,30.6,29.6,29.87,North,349,0.0,0.0,96,0.00,CLR,FEW,0.12,WeatherDisplay:10.37,2013-02-25 02:08:00,
2013-02-24 21:13:00,30.6,29.6,29.88,North,349,0.0,0.0,96,0.00,CLR,FEW,0.12,WeatherDisplay:10.37,2013-02-25 02:13:00,
2013-02-24 21:18:00,30.6,29.6,29.88,North,349,0.0,0.0,96,0.00,CLR,FEW,0.12,WeatherDisplay:10.37,2013-02-25 02:18:00,
2013-02-24 21:23:00,30.6,29.6,29.88,North,349,0.0,0.0,96,0.00,CLR,FEW,0.12,WeatherDisplay:10.37,2013-02-25 02:23:00,
2013-02-24 21:28:00,30.6,29.6,29.88,North,349,0.0,0.0,96,0.00,CLR,FEW,0.12,WeatherDisplay:10.37,2013-02-25 02:28:00,
2013-02-24 21:33:00,30.6,29.6,29.88,North,349,0.0,0.0,96,0.00,CLR,FEW,0.12,WeatherDisplay:10.37,2013-02-25 02:33:00,
2013-02-24 21:37:00,30.6,29.6,29.88,North,349,0.0,0.0,96,0.00,CLR,FEW,0.12,WeatherDisplay:10.37,2013-02-25 02:37:00,
2013-02-24 21:42:00,30.6,29.6,29.88,North,349,0.0,0.0,96,0.00,CLR,FEW,0.12,WeatherDisplay:10.37,2013-02-25 02:42:00,
2013-02-24 21:47:00,30.6,29.6,29.88,North,349,0.0,0.0,96,0.00,CLR,FEW,0.12,WeatherDisplay:10.37,2013-02-25 02:47:00,
2013-02-24 21:52:00,30.7,29.7,29.88,North,349,0.0,0.0,96,0.00,CLR,FEW,0.12,WeatherDisplay:10.37,2013-02-25 02:52:00,
2013-02-24 21:57:00,30.8,29.8,29.88,North,349,0.0,0.0,96,0.00,CLR,FEW,0.12,WeatherDisplay:10.37,2013-02-25 02:57:00,
2013-02-24 22:02:00,30.9,30.1,29.88,North,349,0.0,0.0,97,0.00,CLR,FEW,0.12,WeatherDisplay:10.37,2013-02-25 03:02:00,
2013-02-24 22:07:00,30.9,29.9,29.88,North,349,3.5,3.5,96,0.00,CLR,FEW,0.12,WeatherDisplay:10.37,2013-02-25 03:07:00,
2013-02-24 22:12:00,30.9,29.9,29.88,North,349,2.3,2.3,96,0.00,CLR,FEW,0.12,WeatherDisplay:10.37,2013-02-25 03:12:00,
2013-02-24 22:17:00,30.9,29.9,29.88,North,349,2.3,2.3,96,0.00,CLR,FEW,0.12,WeatherDisplay:10.37,2013-02-25 03:17:00,
2013-02-24 22:22:00,30.9,29.9,29.88,North,349,3.5,3.5,96,0.00,CLR,FEW,0.12,WeatherDisplay:10.37,2013-02-25 03:22:00,
2013-02-24 22:27:00,30.8,29.8,29.89,North,349,2.3,2.3,96,0.00,CLR,FEW,0.12,WeatherDisplay:10.37,2013-02-25 03:27:00,
2013-02-24 22:32:00,30.8,29.5,29.89,North,349,2.3,2.3,95,0.00,CLR,FEW,0.12,WeatherDisplay:10.37,2013-02-25 03:32:00,
2013-02-24 22:37:00,30.7,29.4,29.89,North,349,1.2,1.2,95,0.00,CLR,FEW,0.12,WeatherDisplay:10.37,2013-02-25 03:37:00,
2013-02-24 22:42:00,30.7,29.4,29.89,North,349,2.3,2.3,95,0.00,CLR,FEW,0.12,WeatherDisplay:10.37,2013-02-25 03:42:00,
2013-02-24 22:47:00,30.6,29.3,29.89,North,349,1.2,0.0,95,0.00,CLR,FEW,0.12,WeatherDisplay:10.37,2013-02-25 03:47:00,
2013-02-24 22:52:00,30.5,29.2,29.89,North,349,1.2,1.2,95,0.00,CLR,FEW,0.12,WeatherDisplay:10.37,2013-02-25 03:52:00,
2013-02-24 22:57:00,30.5,29.2,29.89,North,349,2.3,2.3,95,0.00,CLR,FEW,0.12,WeatherDisplay:10.37,2013-02-25 03:57:00,
2013-02-24 23:02:00,30.4,29.1,29.89,North,349,1.2,1.2,95,0.00,CLR,FEW,0.12,WeatherDisplay:10.37,2013-02-25 04:02:00,
2013-02-24 23:07:00,30.3,29.0,29.89,North,349,2.3,2.3,95,0.00,CLR,FEW,0.12,WeatherDisplay:10.37,2013-02-25 04:07:00,
2013-02-24 23:12:00,30.3,29.0,29.90,North,349,2.3,2.3,95,0.00,CLR,FEW,0.12,WeatherDisplay:10.37,2013-02-25 04:12:00,
2013-02-24 23:17:00,30.3,29.0,29.90,North,349,3.5,3.5,95,0.00,CLR,FEW,0.12,WeatherDisplay:10.37,2013-02-25 04:17:00,
2013-02-24 23:22:00,30.3,29.0,29.90,North,349,3.5,3.5,95,0.00,CLR,FEW,0.12,WeatherDisplay:10.37,2013-02-25 04:22:00,
2013-02-24 23:27:00,30.2,28.9,29.90,North,349,3.5,3.5,95,0.00,CLR,FEW,0.12,WeatherDisplay:10.37,2013-02-25 04:27:00,
2013-02-24 23:32:00,30.2,28.9,29.90,North,349,2.3,2.3,95,0.00,CLR,FEW,0.12,WeatherDisplay:10.37,2013-02-25 04:32:00,
2013-02-24 23:37:00,30.2,28.9,29.91,North,349,0.0,0.0,95,0.00,CLR,FEW,0.12,WeatherDisplay:10.37,2013-02-25 04:37:00,
2013-02-24 23:42:00,30.2,28.9,29.91,North,349,2.0,2.0,95,0.00,CLR,FEW,0.12,WeatherDisplay:10.37,2013-02-25 04:42:00,
2013-02-24 23:47:00,30.2,28.9,29.91,North,349,2.3,2.3,95,0.00,CLR,FEW,0.12,WeatherDisplay:10.37,2013-02-25 04:47:00,
2013-02-24 23:52:00,30.2,28.9,29.91,North,349,2.3,2.3,95,0.00,CLR,FEW,0.12,WeatherDisplay:10.37,2013-02-25 04:52:00,
2013-02-24 23:57:00,30.2,28.9,29.91,North,349,0.0,0.0,95,0.00,RA,FEW,0.00,WeatherDisplay:10.37,2013-02-25 04:57:00,